AAY1695 KVPS-KFLL

Flight info

Callsign AAY1695
Flight time 1h 49m
Altitude 37000
Route DCT CAPPS DCT ZOOSS DCT CRG DCT OVENP Q89 PRMUS/N0459F360 Q93 DEBRL/N0459F370 Q93 EBAYY DCT TRV DCT COPIN CUUDA3
Aircraft A319/M-VGDW/C

Departure

Time 2026-05-03 21:31
Airport Destin-Fort Walton Beach Airport (KVPS)

Arrival

Time 2026-05-03 23:20
Airport Fort Lauderdale Hollywood International Airport (KFLL)
Time Latitude Longitude Altitude Speed Heading
2026-05-03 20:58 30.49472 -86.54896 87 ft 0 kts 308°
2026-05-03 21:20 30.49456 -86.54871 87 ft 3 kts 308°
2026-05-03 21:20 30.49449 -86.54844 87 ft 3 kts 259°
2026-05-03 21:20 30.49464 -86.54822 87 ft 3 kts 206°
2026-05-03 21:20 30.49466 -86.54821 87 ft 0 kts 205°
2026-05-03 21:23 30.49460 -86.54823 86 ft 3 kts 200°
2026-05-03 21:23 30.49418 -86.54831 86 ft 9 kts 185°
2026-05-03 21:23 30.49334 -86.54835 86 ft 14 kts 181°
2026-05-03 21:23 30.49232 -86.54845 86 ft 15 kts 190°
2026-05-03 21:24 30.49133 -86.54894 86 ft 15 kts 208°
2026-05-03 21:24 30.49035 -86.54954 86 ft 15 kts 188°
2026-05-03 21:24 30.48961 -86.54877 86 ft 15 kts 119°
2026-05-03 21:24 30.48903 -86.54762 86 ft 16 kts 120°
2026-05-03 21:25 30.48843 -86.54641 86 ft 17 kts 119°
2026-05-03 21:25 30.48780 -86.54511 85 ft 18 kts 118°
2026-05-03 21:25 30.48715 -86.54376 85 ft 19 kts 121°
2026-05-03 21:25 30.48643 -86.54237 84 ft 20 kts 120°
2026-05-03 21:26 30.48571 -86.54092 84 ft 21 kts 119°
2026-05-03 21:26 30.48493 -86.53931 83 ft 23 kts 120°
2026-05-03 21:26 30.48406 -86.53753 81 ft 26 kts 120°
2026-05-03 21:26 30.48308 -86.53555 80 ft 29 kts 118°
2026-05-03 21:27 30.48202 -86.53336 78 ft 32 kts 123°
2026-05-03 21:27 30.48089 -86.53110 76 ft 32 kts 119°
2026-05-03 21:27 30.47982 -86.52885 74 ft 31 kts 120°
2026-05-03 21:27 30.47872 -86.52674 72 ft 30 kts 120°
2026-05-03 21:28 30.47767 -86.52464 70 ft 29 kts 119°
2026-05-03 21:28 30.47693 -86.52263 67 ft 24 kts 99°
2026-05-03 21:28 30.47653 -86.52069 64 ft 21 kts 109°
2026-05-03 21:28 30.47556 -86.51994 62 ft 17 kts 156°
2026-05-03 21:29 30.47437 -86.51934 60 ft 19 kts 156°
2026-05-03 21:29 30.47343 -86.51891 59 ft 2 kts 168°
2026-05-03 21:30 30.47320 -86.51891 59 ft 9 kts 189°
2026-05-03 21:30 30.47272 -86.51952 59 ft 11 kts 266°
2026-05-03 21:30 30.47290 -86.52003 60 ft 0 kts 299°
2026-05-03 21:31 30.47366 -86.52156 63 ft 57 kts 299°
2026-05-03 21:31 30.47690 -86.52815 73 ft 127 kts 300°
2026-05-03 21:31 30.48208 -86.53871 327 ft 160 kts 300°
2026-05-03 21:31 30.48767 -86.55016 956 ft 168 kts 301°
2026-05-03 21:32 30.49336 -86.56182 1703 ft 167 kts 302°
2026-05-03 21:32 30.49917 -86.57370 2272 ft 178 kts 302°
2026-05-03 21:32 30.50564 -86.58687 2728 ft 199 kts 302°
2026-05-03 21:32 30.51280 -86.60143 3277 ft 217 kts 302°
2026-05-03 21:33 30.52051 -86.61715 3838 ft 235 kts 302°
2026-05-03 21:33 30.52901 -86.63446 4412 ft 253 kts 302°
2026-05-03 21:33 30.53795 -86.65272 5079 ft 266 kts 302°
2026-05-03 21:33 30.54705 -86.67132 5950 ft 270 kts 301°
2026-05-03 21:34 30.55632 -86.69029 6843 ft 273 kts 301°
2026-05-03 21:34 30.56563 -86.70933 7736 ft 275 kts 301°
2026-05-03 21:34 30.57504 -86.72861 8643 ft 276 kts 300°
2026-05-03 21:34 30.58461 -86.74803 9522 ft 278 kts 302°
2026-05-03 21:35 30.59773 -86.76440 10349 ft 281 kts 326°
2026-05-03 21:35 30.61610 -86.77300 10918 ft 298 kts 348°
2026-05-03 21:35 30.63756 -86.77206 11317 ft 322 kts 11°
2026-05-03 21:35 30.65871 -86.76060 11655 ft 347 kts 33°
2026-05-03 21:36 30.67567 -86.73964 12076 ft 367 kts 56°
2026-05-03 21:36 30.68540 -86.71196 12682 ft 377 kts 77°
2026-05-03 21:36 30.68825 -86.68155 13345 ft 382 kts 88°
2026-05-03 21:36 30.68747 -86.65078 14009 ft 387 kts 93°
2026-05-03 21:37 30.68558 -86.61910 14677 ft 392 kts 94°
2026-05-03 21:37 30.68361 -86.58765 15617 ft 388 kts 94°
2026-05-03 21:37 30.68180 -86.55724 16694 ft 378 kts 94°
2026-05-03 21:37 30.68014 -86.52710 17774 ft 368 kts 95°
2026-05-03 21:38 30.67861 -86.49807 18798 ft 358 kts 95°
2026-05-03 21:38 30.67712 -86.46951 19646 ft 354 kts 95°
2026-05-03 21:38 30.67566 -86.44089 20251 ft 358 kts 95°
2026-05-03 21:38 30.67416 -86.41141 20742 ft 365 kts 95°
2026-05-03 21:39 30.67264 -86.38155 20995 ft 380 kts 95°
2026-05-03 21:39 30.67102 -86.35001 21260 ft 393 kts 95°
2026-05-03 21:39 30.66936 -86.31759 21511 ft 407 kts 96°
2026-05-03 21:39 30.66767 -86.28432 21755 ft 419 kts 96°
2026-05-03 21:40 30.66595 -86.25011 21983 ft 431 kts 96°
2026-05-03 21:40 30.66415 -86.21491 22190 ft 443 kts 96°
2026-05-03 21:40 30.66229 -86.17845 22441 ft 453 kts 96°
2026-05-03 21:40 30.66042 -86.14198 22817 ft 458 kts 96°
2026-05-03 21:41 30.65850 -86.10461 23259 ft 461 kts 96°
2026-05-03 21:41 30.65660 -86.06764 23682 ft 465 kts 96°
2026-05-03 21:41 30.65463 -86.02994 24083 ft 469 kts 96°
2026-05-03 21:41 30.65265 -85.99206 24479 ft 473 kts 96°
2026-05-03 21:42 30.65062 -85.95364 24883 ft 476 kts 96°
2026-05-03 21:42 30.64859 -85.91529 25238 ft 480 kts 96°
2026-05-03 21:42 30.64647 -85.87601 25593 ft 484 kts 96°
2026-05-03 21:42 30.64441 -85.83741 25978 ft 487 kts 96°
2026-05-03 21:43 30.64226 -85.79781 26332 ft 491 kts 96°
2026-05-03 21:43 30.64011 -85.75815 26694 ft 494 kts 96°
2026-05-03 21:43 30.63792 -85.71818 27038 ft 497 kts 96°
2026-05-03 21:43 30.63572 -85.67792 27381 ft 500 kts 97°
2026-05-03 21:44 30.63348 -85.63727 27716 ft 503 kts 96°
2026-05-03 21:44 30.63122 -85.59689 28041 ft 506 kts 96°
2026-05-03 21:44 30.62892 -85.55585 28365 ft 509 kts 96°
2026-05-03 21:44 30.62660 -85.51441 28678 ft 512 kts 97°
2026-05-03 21:45 30.62424 -85.47273 28992 ft 515 kts 97°
2026-05-03 21:45 30.62190 -85.43156 29309 ft 517 kts 97°
2026-05-03 21:45 30.61952 -85.38975 29749 ft 517 kts 97°
2026-05-03 21:45 30.61713 -85.34788 30201 ft 516 kts 98°
2026-05-03 21:46 30.61471 -85.30611 30610 ft 515 kts 97°
2026-05-03 21:46 30.61232 -85.26483 31013 ft 514 kts 98°
2026-05-03 21:46 30.60991 -85.22313 31426 ft 513 kts 98°
2026-05-03 21:46 30.60748 -85.18184 31806 ft 513 kts 98°
2026-05-03 21:47 30.60505 -85.14084 32185 ft 512 kts 98°
2026-05-03 21:47 30.60261 -85.09978 32552 ft 512 kts 98°
2026-05-03 21:47 30.60013 -85.05827 32910 ft 511 kts 98°
2026-05-03 21:47 30.59764 -85.01708 33261 ft 511 kts 98°
2026-05-03 21:48 30.59518 -84.97604 33589 ft 511 kts 98°
2026-05-03 21:48 30.59265 -84.93467 33929 ft 510 kts 98°
2026-05-03 21:48 30.59015 -84.89377 34212 ft 510 kts 98°
2026-05-03 21:48 30.58764 -84.85270 34482 ft 510 kts 98°
2026-05-03 21:49 30.58510 -84.81123 34633 ft 510 kts 99°
2026-05-03 21:49 30.58254 -84.77005 34965 ft 512 kts 99°
2026-05-03 21:49 30.57998 -84.72929 35174 ft 513 kts 99°
2026-05-03 21:49 30.57737 -84.68763 35410 ft 514 kts 99°
2026-05-03 21:50 30.57478 -84.64604 35624 ft 514 kts 99°
2026-05-03 21:50 30.57215 -84.60465 35817 ft 515 kts 99°
2026-05-03 21:50 30.56947 -84.56271 35969 ft 517 kts 99°
2026-05-03 21:50 30.56682 -84.52135 36109 ft 520 kts 99°
2026-05-03 21:51 30.56139 -84.43689 36129 ft 523 kts 99°
2026-05-03 21:51 30.55594 -84.35275 36097 ft 522 kts 100°
2026-05-03 21:52 30.55037 -84.26834 36103 ft 523 kts 100°
2026-05-03 21:52 30.54474 -84.18348 36097 ft 523 kts 100°
2026-05-03 21:53 30.53906 -84.09894 36086 ft 524 kts 100°
2026-05-03 21:53 30.53336 -84.01454 36087 ft 524 kts 100°
2026-05-03 21:54 30.52759 -83.93002 36081 ft 525 kts 100°
2026-05-03 21:54 30.52176 -83.84540 36079 ft 524 kts 100°
2026-05-03 21:55 30.51585 -83.76041 36081 ft 525 kts 100°
2026-05-03 21:55 30.50994 -83.67613 36077 ft 525 kts 100°
2026-05-03 21:56 30.50395 -83.59170 36073 ft 526 kts 100°
2026-05-03 21:56 30.49786 -83.50679 36077 ft 527 kts 100°
2026-05-03 21:57 30.49173 -83.42182 36085 ft 526 kts 100°
2026-05-03 21:57 30.48550 -83.33647 36080 ft 527 kts 101°
2026-05-03 21:58 30.47927 -83.25153 36080 ft 526 kts 101°
2026-05-03 21:58 30.47301 -83.16687 36078 ft 526 kts 101°
2026-05-03 21:59 30.46664 -83.08218 36073 ft 527 kts 101°
2026-05-03 21:59 30.46022 -82.99723 36078 ft 526 kts 101°
2026-05-03 22:00 30.45381 -82.91274 36072 ft 527 kts 101°
2026-05-03 22:00 30.44732 -82.82807 36077 ft 528 kts 101°
2026-05-03 22:01 30.44071 -82.74287 36075 ft 528 kts 101°
2026-05-03 22:01 30.43406 -82.65782 36076 ft 529 kts 101°
2026-05-03 22:02 30.42737 -82.57262 36068 ft 527 kts 101°
2026-05-03 22:02 30.42064 -82.48798 36073 ft 528 kts 102°
2026-05-03 22:03 30.41382 -82.40282 36070 ft 528 kts 102°
2026-05-03 22:03 30.40692 -82.31797 36061 ft 529 kts 102°
2026-05-03 22:04 30.40001 -82.23267 36057 ft 528 kts 102°
2026-05-03 22:04 30.39308 -82.14804 36076 ft 529 kts 102°
2026-05-03 22:05 30.38600 -82.06262 36064 ft 531 kts 102°
2026-05-03 22:05 30.37894 -81.97770 36087 ft 529 kts 103°
2026-05-03 22:06 30.37180 -81.89264 36090 ft 530 kts 103°
2026-05-03 22:06 30.36451 -81.80706 36091 ft 531 kts 102°
2026-05-03 22:07 30.35735 -81.72215 36104 ft 530 kts 102°
2026-05-03 22:07 30.34996 -81.63652 36097 ft 530 kts 103°
2026-05-03 22:08 30.33144 -81.55607 36101 ft 505 kts 124°
2026-05-03 22:08 30.31439 -81.52103 36096 ft 491 kts 136°
2026-05-03 22:08 30.29338 -81.49068 36106 ft 475 kts 146°
2026-05-03 22:09 30.26956 -81.46517 36102 ft 458 kts 154°
2026-05-03 22:09 30.24336 -81.44439 36107 ft 443 kts 163°
2026-05-03 22:09 30.21624 -81.42918 36103 ft 427 kts 172°
2026-05-03 22:10 30.16021 -81.40955 36109 ft 418 kts 177°
2026-05-03 22:10 30.10380 -81.39168 36106 ft 421 kts 178°
2026-05-03 22:11 30.04717 -81.37357 36104 ft 418 kts 177°
2026-05-03 22:11 29.99093 -81.35547 36101 ft 420 kts 177°
2026-05-03 22:12 29.93388 -81.33708 36111 ft 421 kts 178°
2026-05-03 22:12 29.87691 -81.31883 36091 ft 429 kts 178°
2026-05-03 22:13 29.81881 -81.30012 36097 ft 429 kts 178°
2026-05-03 22:13 29.76108 -81.28148 36093 ft 430 kts 178°
2026-05-03 22:14 29.70329 -81.26296 36092 ft 432 kts 178°
2026-05-03 22:14 29.64492 -81.24426 36089 ft 431 kts 178°
2026-05-03 22:15 29.58695 -81.22565 36091 ft 429 kts 178°
2026-05-03 22:15 29.52892 -81.20710 36091 ft 430 kts 178°
2026-05-03 22:16 29.47055 -81.18845 36088 ft 431 kts 178°
2026-05-03 22:16 29.41231 -81.16981 36091 ft 432 kts 178°
2026-05-03 22:17 29.35412 -81.15126 36091 ft 431 kts 178°
2026-05-03 22:17 29.29612 -81.13217 36094 ft 434 kts 176°
2026-05-03 22:18 29.23859 -81.10837 36086 ft 440 kts 173°
2026-05-03 22:18 29.18086 -81.08304 36093 ft 441 kts 173°
2026-05-03 22:19 29.12323 -81.05769 36086 ft 441 kts 173°
2026-05-03 22:19 29.06575 -81.03235 36089 ft 443 kts 173°
2026-05-03 22:20 29.00802 -81.00693 36086 ft 441 kts 173°
2026-05-03 22:20 28.95051 -80.98161 36090 ft 443 kts 173°
2026-05-03 22:21 28.89265 -80.95623 36096 ft 444 kts 173°
2026-05-03 22:21 28.83476 -80.93078 36092 ft 443 kts 172°
2026-05-03 22:22 28.77693 -80.90538 36078 ft 443 kts 172°
2026-05-03 22:22 28.71949 -80.88021 36068 ft 444 kts 173°
2026-05-03 22:23 28.66089 -80.85632 36077 ft 443 kts 175°
2026-05-03 22:23 28.60238 -80.83387 36084 ft 440 kts 175°
2026-05-03 22:24 28.54417 -80.81155 36082 ft 442 kts 175°
2026-05-03 22:24 28.48531 -80.78905 36080 ft 443 kts 175°
2026-05-03 22:25 28.42703 -80.76675 36077 ft 441 kts 175°
2026-05-03 22:25 28.36856 -80.74440 36073 ft 440 kts 174°
2026-05-03 22:26 28.31004 -80.72207 36070 ft 443 kts 175°
2026-05-03 22:26 28.25161 -80.69981 36067 ft 441 kts 174°
2026-05-03 22:27 28.19333 -80.67758 36068 ft 443 kts 174°
2026-05-03 22:27 28.13455 -80.65524 36064 ft 441 kts 174°
2026-05-03 22:28 28.07585 -80.63294 36071 ft 445 kts 174°
2026-05-03 22:28 28.01704 -80.61064 36071 ft 444 kts 174°
2026-05-03 22:29 27.95829 -80.58833 36065 ft 446 kts 174°
2026-05-03 22:29 27.89910 -80.56593 36066 ft 447 kts 174°
2026-05-03 22:30 27.84016 -80.54360 36064 ft 445 kts 173°
2026-05-03 22:30 27.78105 -80.52125 36057 ft 447 kts 173°
2026-05-03 22:30 27.75153 -80.51022 35809 ft 446 kts 174°
2026-05-03 22:31 27.72189 -80.49987 35590 ft 449 kts 172°
2026-05-03 22:31 27.69274 -80.48422 35329 ft 469 kts 159°
2026-05-03 22:31 27.66687 -80.46034 35051 ft 497 kts 143°
2026-05-03 22:31 27.64643 -80.42743 34792 ft 524 kts 124°
2026-05-03 22:32 27.63494 -80.38792 34599 ft 546 kts 105°
2026-05-03 22:32 27.63372 -80.34485 34180 ft 560 kts 88°
2026-05-03 22:32 27.63760 -80.30089 33606 ft 560 kts 90°
2026-05-03 22:32 27.63678 -80.25761 33010 ft 552 kts 101°
2026-05-03 22:33 27.63184 -80.21500 32535 ft 543 kts 110°
2026-05-03 22:33 27.61838 -80.17657 31958 ft 517 kts 129°
2026-05-03 22:33 27.59774 -80.14523 31284 ft 495 kts 143°
2026-05-03 22:33 27.57201 -80.12035 30489 ft 477 kts 155°
2026-05-03 22:34 27.54354 -80.10255 29737 ft 460 kts 165°
2026-05-03 22:34 27.51411 -80.09026 29160 ft 448 kts 169°
2026-05-03 22:34 27.48481 -80.07895 28537 ft 443 kts 169°
2026-05-03 22:34 27.45598 -80.06768 27853 ft 440 kts 169°
2026-05-03 22:35 27.42712 -80.05606 27169 ft 438 kts 168°
2026-05-03 22:35 27.39850 -80.04439 26472 ft 434 kts 169°
2026-05-03 22:35 27.37014 -80.03426 25773 ft 429 kts 172°
2026-05-03 22:35 27.34173 -80.02545 25170 ft 423 kts 172°
2026-05-03 22:36 27.31302 -80.01663 24591 ft 421 kts 172°
2026-05-03 22:36 27.28497 -80.00804 24152 ft 419 kts 172°
2026-05-03 22:36 27.25706 -79.99937 24033 ft 422 kts 171°
2026-05-03 22:36 27.22870 -79.98939 23806 ft 425 kts 169°
2026-05-03 22:37 27.20055 -79.97923 23408 ft 419 kts 169°
2026-05-03 22:37 27.17328 -79.96931 22788 ft 416 kts 169°
2026-05-03 22:37 27.14558 -79.95928 22146 ft 414 kts 169°
2026-05-03 22:37 27.11844 -79.94948 21527 ft 411 kts 169°
2026-05-03 22:38 27.09114 -79.93964 20982 ft 407 kts 169°
2026-05-03 22:38 27.06461 -79.92984 20451 ft 406 kts 167°
2026-05-03 22:38 27.03791 -79.91917 19945 ft 403 kts 166°
2026-05-03 22:38 27.01164 -79.90856 19425 ft 402 kts 166°
2026-05-03 22:39 26.98539 -79.89795 18918 ft 400 kts 166°
2026-05-03 22:39 26.95939 -79.88744 18425 ft 397 kts 166°
2026-05-03 22:39 26.93346 -79.87697 17945 ft 394 kts 166°
2026-05-03 22:39 26.90783 -79.86661 17474 ft 391 kts 166°
2026-05-03 22:40 26.88204 -79.85620 16985 ft 389 kts 166°
2026-05-03 22:40 26.85688 -79.84607 16612 ft 385 kts 166°
2026-05-03 22:40 26.83149 -79.83584 16328 ft 384 kts 166°
2026-05-03 22:40 26.80652 -79.82580 16001 ft 384 kts 165°
2026-05-03 22:41 26.78150 -79.81576 15522 ft 381 kts 165°
2026-05-03 22:41 26.75663 -79.80577 15069 ft 377 kts 165°
2026-05-03 22:41 26.73211 -79.79590 14608 ft 375 kts 165°
2026-05-03 22:41 26.70719 -79.78815 14134 ft 365 kts 178°
2026-05-03 22:42 26.68260 -79.78992 13697 ft 344 kts 198°
2026-05-03 22:42 26.66021 -79.79852 13240 ft 336 kts 204°
2026-05-03 22:42 26.63873 -79.80760 12850 ft 331 kts 204°
2026-05-03 22:42 26.61712 -79.81661 12469 ft 325 kts 204°
2026-05-03 22:43 26.59606 -79.82529 12098 ft 317 kts 204°
2026-05-03 22:43 26.57576 -79.83357 11537 ft 307 kts 204°
2026-05-03 22:43 26.55609 -79.84163 11203 ft 292 kts 205°
2026-05-03 22:43 26.53764 -79.85010 10877 ft 287 kts 206°
2026-05-03 22:44 26.51918 -79.85880 10476 ft 286 kts 206°
2026-05-03 22:44 26.50089 -79.86741 10101 ft 284 kts 206°
2026-05-03 22:44 26.48303 -79.87579 9957 ft 274 kts 206°
2026-05-03 22:44 26.46536 -79.88409 9609 ft 273 kts 206°
2026-05-03 22:45 26.44797 -79.89227 9259 ft 272 kts 207°
2026-05-03 22:45 26.43069 -79.90041 8917 ft 270 kts 206°
2026-05-03 22:45 26.41335 -79.90857 8574 ft 269 kts 206°
2026-05-03 22:45 26.39616 -79.91664 8237 ft 268 kts 206°
2026-05-03 22:46 26.37929 -79.92550 8008 ft 269 kts 211°
2026-05-03 22:46 26.36267 -79.93590 7999 ft 271 kts 213°
2026-05-03 22:46 26.34649 -79.94629 7990 ft 271 kts 213°
2026-05-03 22:46 26.33015 -79.95679 7985 ft 271 kts 213°
2026-05-03 22:47 26.31368 -79.96737 7986 ft 271 kts 213°
2026-05-03 22:47 26.29730 -79.97791 7991 ft 270 kts 213°
2026-05-03 22:47 26.28099 -79.98840 7990 ft 270 kts 213°
2026-05-03 22:47 26.26479 -79.99881 7989 ft 270 kts 213°
2026-05-03 22:48 26.24848 -80.00930 7987 ft 271 kts 213°
2026-05-03 22:48 26.23205 -80.01985 7988 ft 271 kts 213°
2026-05-03 22:48 26.21574 -80.03035 7989 ft 270 kts 213°
2026-05-03 22:48 26.19949 -80.04079 7987 ft 271 kts 213°
2026-05-03 22:49 26.18443 -80.05305 7977 ft 267 kts 230°
2026-05-03 22:49 26.17475 -80.07045 7985 ft 264 kts 250°
2026-05-03 22:49 26.16884 -80.08978 7991 ft 265 kts 252°
2026-05-03 22:49 26.16315 -80.10944 7990 ft 266 kts 252°
2026-05-03 22:50 26.15749 -80.12875 7990 ft 265 kts 252°
2026-05-03 22:50 26.15256 -80.14856 7990 ft 265 kts 259°
2026-05-03 22:50 26.15041 -80.16894 7990 ft 266 kts 267°
2026-05-03 22:50 26.15024 -80.18956 7992 ft 266 kts 269°
2026-05-03 22:51 26.15041 -80.21004 7990 ft 265 kts 270°
2026-05-03 22:51 26.15058 -80.23055 7991 ft 266 kts 269°
2026-05-03 22:51 26.15072 -80.25094 7991 ft 266 kts 269°
2026-05-03 22:51 26.15083 -80.27156 7988 ft 266 kts 269°
2026-05-03 22:52 26.15094 -80.29224 7989 ft 265 kts 269°
2026-05-03 22:52 26.15101 -80.31280 7993 ft 264 kts 269°
2026-05-03 22:52 26.15109 -80.33305 7991 ft 264 kts 269°
2026-05-03 22:52 26.15110 -80.35360 7989 ft 265 kts 269°
2026-05-03 22:53 26.15077 -80.37405 7992 ft 264 kts 268°
2026-05-03 22:53 26.15035 -80.39436 7995 ft 265 kts 268°
2026-05-03 22:53 26.14992 -80.41506 7993 ft 265 kts 268°
2026-05-03 22:53 26.14949 -80.43530 7994 ft 265 kts 268°
2026-05-03 22:54 26.14908 -80.45592 7990 ft 264 kts 268°
2026-05-03 22:54 26.14868 -80.47634 7989 ft 264 kts 268°
2026-05-03 22:54 26.14826 -80.49667 7997 ft 265 kts 268°
2026-05-03 22:54 26.14783 -80.51738 8019 ft 266 kts 268°
2026-05-03 22:55 26.14741 -80.53792 8017 ft 265 kts 268°
2026-05-03 22:55 26.14699 -80.55818 7969 ft 265 kts 268°
2026-05-03 22:55 26.14657 -80.57871 8009 ft 266 kts 268°
2026-05-03 22:55 26.14613 -80.59947 8000 ft 266 kts 268°
2026-05-03 22:56 26.14571 -80.61991 7996 ft 266 kts 268°
2026-05-03 22:56 26.14528 -80.64051 7985 ft 265 kts 268°
2026-05-03 22:56 26.14485 -80.66095 7978 ft 265 kts 267°
2026-05-03 22:56 26.14441 -80.68145 7985 ft 265 kts 268°
2026-05-03 22:57 26.14502 -80.70183 7975 ft 266 kts 280°
2026-05-03 22:57 26.15315 -80.72070 7973 ft 272 kts 307°
2026-05-03 22:57 26.16846 -80.73335 7980 ft 281 kts 333°
2026-05-03 22:57 26.18771 -80.73819 7986 ft 288 kts 349°
2026-05-03 22:58 26.20777 -80.74004 7978 ft 289 kts 352°
2026-05-03 22:58 26.22788 -80.73903 7970 ft 295 kts 11°
2026-05-03 22:58 26.24693 -80.72933 7988 ft 300 kts 29°
2026-05-03 22:58 26.26438 -80.71644 7986 ft 301 kts 32°
2026-05-03 22:59 26.28151 -80.70304 7988 ft 300 kts 33°
2026-05-03 22:59 26.29852 -80.68964 7989 ft 299 kts 33°
2026-05-03 22:59 26.31564 -80.67612 7987 ft 299 kts 33°
2026-05-03 22:59 26.33260 -80.66271 7986 ft 298 kts 32°
2026-05-03 23:00 26.34939 -80.64941 7779 ft 294 kts 33°
2026-05-03 23:00 26.36623 -80.63609 7365 ft 295 kts 33°
2026-05-03 23:00 26.38294 -80.62290 7003 ft 294 kts 32°
2026-05-03 23:00 26.39957 -80.60978 6669 ft 292 kts 32°
2026-05-03 23:01 26.41607 -80.59678 6327 ft 290 kts 33°
2026-05-03 23:01 26.43262 -80.58376 6037 ft 287 kts 33°
2026-05-03 23:01 26.44676 -80.56830 5980 ft 291 kts 56°
2026-05-03 23:01 26.45379 -80.54711 5985 ft 291 kts 84°
2026-05-03 23:02 26.45180 -80.52485 5984 ft 290 kts 111°
2026-05-03 23:02 26.44337 -80.50478 5990 ft 289 kts 120°
2026-05-03 23:02 26.43352 -80.48543 5988 ft 277 kts 122°
2026-05-03 23:02 26.42401 -80.46738 5981 ft 262 kts 122°
2026-05-03 23:03 26.41503 -80.45031 5985 ft 254 kts 122°
2026-05-03 23:03 26.40604 -80.43320 5990 ft 256 kts 122°
2026-05-03 23:03 26.39694 -80.41592 5983 ft 256 kts 122°
2026-05-03 23:03 26.38800 -80.39888 5986 ft 256 kts 122°
2026-05-03 23:04 26.37904 -80.38178 5988 ft 256 kts 122°
2026-05-03 23:04 26.37006 -80.36465 5991 ft 255 kts 122°
2026-05-03 23:04 26.36114 -80.34752 5992 ft 255 kts 123°
2026-05-03 23:04 26.35224 -80.33045 5990 ft 255 kts 123°
2026-05-03 23:05 26.34300 -80.31356 5994 ft 254 kts 131°
2026-05-03 23:05 26.32938 -80.30165 5992 ft 245 kts 162°
2026-05-03 23:05 26.31318 -80.29623 6007 ft 242 kts 171°
2026-05-03 23:05 26.29690 -80.29230 5962 ft 237 kts 172°
2026-05-03 23:06 26.28102 -80.28876 5814 ft 229 kts 173°
2026-05-03 23:06 26.26550 -80.28535 5659 ft 221 kts 173°
2026-05-03 23:06 26.25054 -80.28211 5513 ft 214 kts 172°
2026-05-03 23:06 26.23611 -80.27903 5369 ft 207 kts 172°
2026-05-03 23:07 26.22212 -80.27603 5172 ft 203 kts 173°
2026-05-03 23:07 26.20842 -80.27310 4914 ft 203 kts 173°
2026-05-03 23:07 26.19446 -80.27013 4648 ft 203 kts 172°
2026-05-03 23:07 26.18058 -80.26722 4396 ft 202 kts 173°
2026-05-03 23:08 26.16694 -80.26445 4147 ft 201 kts 172°
2026-05-03 23:08 26.15290 -80.26170 3817 ft 206 kts 172°
2026-05-03 23:08 26.13827 -80.25904 3284 ft 220 kts 172°
2026-05-03 23:08 26.12329 -80.25648 3012 ft 219 kts 172°
2026-05-03 23:09 26.10856 -80.25413 2977 ft 206 kts 173°
2026-05-03 23:09 26.09443 -80.25215 2979 ft 202 kts 181°
2026-05-03 23:09 26.08081 -80.25475 3028 ft 193 kts 198°
2026-05-03 23:09 26.06863 -80.25942 3010 ft 176 kts 201°
2026-05-03 23:10 26.05683 -80.26435 3011 ft 189 kts 202°
2026-05-03 23:10 26.04439 -80.26968 3001 ft 193 kts 203°
2026-05-03 23:10 26.03185 -80.27505 2992 ft 193 kts 203°
2026-05-03 23:10 26.01925 -80.28040 2987 ft 194 kts 202°
2026-05-03 23:11 26.00653 -80.28580 2986 ft 194 kts 204°
2026-05-03 23:11 25.99542 -80.29357 2969 ft 191 kts 231°
2026-05-03 23:11 25.99047 -80.30695 2986 ft 188 kts 262°
2026-05-03 23:11 25.98905 -80.32149 2990 ft 188 kts 267°
2026-05-03 23:12 25.98814 -80.33607 2986 ft 189 kts 268°
2026-05-03 23:12 25.98726 -80.35063 2985 ft 189 kts 268°
2026-05-03 23:12 25.98636 -80.36519 2983 ft 189 kts 268°
2026-05-03 23:12 25.98550 -80.37972 2984 ft 189 kts 268°
2026-05-03 23:13 25.98482 -80.39445 2989 ft 192 kts 274°
2026-05-03 23:13 25.98906 -80.40760 2953 ft 177 kts 312°
2026-05-03 23:13 25.99904 -80.41361 2934 ft 156 kts 352°
2026-05-03 23:13 26.00976 -80.41389 2960 ft 152 kts
2026-05-03 23:14 26.02029 -80.41327 2973 ft 152 kts
2026-05-03 23:14 26.03087 -80.41237 2978 ft 153 kts
2026-05-03 23:14 26.04005 -80.40646 2969 ft 156 kts 51°
2026-05-03 23:14 26.04575 -80.39612 2993 ft 158 kts 60°
2026-05-03 23:15 26.05061 -80.38531 2986 ft 158 kts 62°
2026-05-03 23:15 26.05537 -80.37425 2988 ft 157 kts 63°
2026-05-03 23:15 26.06004 -80.36330 2988 ft 157 kts 65°
2026-05-03 23:15 26.06359 -80.35185 2986 ft 157 kts 74°
2026-05-03 23:16 26.06547 -80.33985 2985 ft 158 kts 82°
2026-05-03 23:16 26.06632 -80.32763 2846 ft 158 kts 85°
2026-05-03 23:16 26.06673 -80.31554 2641 ft 156 kts 87°
2026-05-03 23:16 26.06684 -80.30357 2442 ft 155 kts 87°
2026-05-03 23:17 26.06683 -80.29166 2246 ft 154 kts 88°
2026-05-03 23:17 26.06675 -80.27975 2047 ft 152 kts 88°
2026-05-03 23:17 26.06661 -80.26802 1855 ft 150 kts 86°
2026-05-03 23:17 26.06651 -80.25655 1666 ft 149 kts 86°
2026-05-03 23:18 26.06642 -80.24493 1492 ft 149 kts 88°
2026-05-03 23:18 26.06634 -80.23338 1294 ft 150 kts 87°
2026-05-03 23:18 26.06628 -80.22195 1102 ft 149 kts 86°
2026-05-03 23:18 26.06622 -80.21036 905 ft 148 kts 86°
2026-05-03 23:19 26.06611 -80.19904 705 ft 144 kts 89°
2026-05-03 23:19 26.06588 -80.18827 513 ft 134 kts 88°
2026-05-03 23:19 26.06591 -80.17797 378 ft 133 kts 86°
2026-05-03 23:19 26.06596 -80.16767 208 ft 132 kts 87°
2026-05-03 23:20 26.06589 -80.15768 26 ft 127 kts 88°
2026-05-03 23:20 26.06586 -80.15028 13 ft 55 kts 90°
2026-05-03 23:20 26.06584 -80.14601 13 ft 52 kts 90°
2026-05-03 23:20 26.06605 -80.14276 13 ft 22 kts 63°
2026-05-03 23:21 26.06661 -80.14226 13 ft 0 kts 18°
2026-05-03 23:21 26.06662 -80.14226 13 ft 0 kts 18°
2026-05-03 23:21 26.06663 -80.14226 13 ft 0 kts 17°
2026-05-03 23:21 26.06677 -80.14224 13 ft 3 kts 344°
2026-05-03 23:22 26.06691 -80.14399 13 ft 17 kts 270°
2026-05-03 23:22 26.06692 -80.14536 13 ft 18 kts 271°
2026-05-03 23:22 26.06693 -80.14681 13 ft 19 kts 270°
2026-05-03 23:23 26.06694 -80.14832 13 ft 19 kts 271°
2026-05-03 23:23 26.06721 -80.14923 13 ft 10 kts 351°
2026-05-03 23:23 26.06766 -80.14868 13 ft 12 kts 85°
2026-05-03 23:23 26.06769 -80.14759 13 ft 16 kts 88°
2026-05-03 23:24 26.06770 -80.14623 13 ft 15 kts 83°
2026-05-03 23:24 26.06835 -80.14611 13 ft 8 kts 327°
2026-05-03 23:24 26.06892 -80.14597 13 ft 9 kts 34°
2026-05-03 23:24 26.06901 -80.14590 13 ft 0 kts 35°